Time,TemperatureF,DewpointF,PressureIn,WindDirection,WindDirectionDegrees,WindSpeedMPH,WindSpeedGustMPH,Humidity,HourlyPrecipIn,Conditions,Clouds,dailyrainin,SoftwareType,DateUTC
2013-03-08 00:01:00,56.0,38.0,29.77,SE,126,7.0,13.0,51,0.00,,,0.00,,2013-03-08 06:01:00,
2013-03-08 00:11:00,56.0,38.0,29.77,SE,126,7.0,13.0,51,0.00,,,0.00,,2013-03-08 06:11:00,
2013-03-08 00:22:00,56.0,39.0,29.78,SE,134,5.0,14.0,53,0.00,,,0.00,,2013-03-08 06:22:00,
2013-03-08 00:32:00,56.0,39.0,29.78,SE,134,5.0,14.0,53,0.00,,,0.00,,2013-03-08 06:32:00,
2013-03-08 00:42:00,56.0,39.0,29.78,SE,134,5.0,14.0,53,0.00,,,0.00,,2013-03-08 06:42:00,
2013-03-08 00:52:00,55.0,41.0,29.79,SE,146,5.0,10.0,58,0.00,,,0.00,,2013-03-08 06:52:00,
2013-03-08 01:01:00,56.0,43.0,29.79,ESE,119,6.0,10.0,61,0.00,,,0.00,,2013-03-08 07:01:00,
2013-03-08 01:11:00,56.0,43.0,29.79,ESE,119,6.0,10.0,61,0.00,,,0.00,,2013-03-08 07:11:00,
2013-03-08 01:22:00,56.0,44.0,29.79,South,184,6.0,12.0,64,0.00,,,0.00,,2013-03-08 07:22:00,
2013-03-08 01:31:00,56.0,44.0,29.79,SE,128,6.0,15.0,65,0.00,,,0.00,,2013-03-08 07:31:00,
2013-03-08 01:42:00,56.0,44.0,29.79,SE,128,6.0,15.0,65,0.00,,,0.00,,2013-03-08 07:42:00,
2013-03-08 01:52:00,55.0,44.0,29.80,SE,144,7.0,15.0,66,0.00,,,0.00,,2013-03-08 07:52:00,
2013-03-08 02:01:00,55.0,45.0,29.79,ESE,110,7.0,14.0,68,0.00,,,0.00,,2013-03-08 08:01:00,
2013-03-08 02:11:00,55.0,45.0,29.79,ESE,110,7.0,14.0,68,0.00,,,0.00,,2013-03-08 08:11:00,
2013-03-08 02:22:00,55.0,45.0,29.78,SSE,147,5.0,14.0,69,0.00,,,0.00,,2013-03-08 08:22:00,
2013-03-08 02:32:00,54.0,45.0,29.78,SE,140,6.0,11.0,71,0.00,,,0.00,,2013-03-08 08:32:00,
2013-03-08 02:42:00,54.0,45.0,29.78,SE,140,6.0,11.0,71,0.00,,,0.00,,2013-03-08 08:42:00,
2013-03-08 02:52:00,54.0,45.0,29.78,SSE,148,6.0,13.0,72,0.00,,,0.00,,2013-03-08 08:52:00,
2013-03-08 03:03:00,54.0,46.0,29.78,SE,131,5.0,13.0,73,0.00,,,0.00,,2013-03-08 09:03:00,
2013-03-08 03:11:00,54.0,46.0,29.78,SE,131,5.0,13.0,73,0.00,,,0.00,,2013-03-08 09:11:00,
2013-03-08 03:21:00,55.0,47.0,29.77,ESE,111,6.0,15.0,73,0.00,,,0.00,,2013-03-08 09:21:00,
2013-03-08 03:32:00,55.0,47.0,29.77,ESE,118,9.0,14.0,74,0.00,,,0.00,,2013-03-08 09:32:00,
2013-03-08 03:42:00,55.0,47.0,29.77,ESE,118,9.0,14.0,74,0.00,,,0.00,,2013-03-08 09:42:00,
2013-03-08 03:52:00,55.0,47.0,29.77,SSE,159,6.0,11.0,74,0.00,,,0.00,,2013-03-08 09:52:00,
2013-03-08 04:01:00,55.0,47.0,29.76,SSE,160,5.0,11.0,75,0.00,,,0.00,,2013-03-08 10:01:00,
2013-03-08 04:11:00,55.0,47.0,29.76,SSE,160,5.0,11.0,75,0.00,,,0.00,,2013-03-08 10:11:00,
2013-03-08 04:21:00,55.0,47.0,29.77,SE,127,5.0,12.0,75,0.00,,,0.00,,2013-03-08 10:21:00,
2013-03-08 04:32:00,55.0,47.0,29.77,SSE,157,5.0,13.0,75,0.00,,,0.00,,2013-03-08 10:32:00,
2013-03-08 04:42:00,55.0,47.0,29.77,SSE,157,5.0,13.0,75,0.00,,,0.00,,2013-03-08 10:42:00,
2013-03-08 04:52:00,55.0,47.0,29.78,SE,136,5.0,9.0,75,0.00,,,0.00,,2013-03-08 10:52:00,
2013-03-08 05:01:00,55.0,48.0,29.77,SE,128,3.0,11.0,76,0.00,,,0.00,,2013-03-08 11:01:00,
2013-03-08 05:11:00,55.0,48.0,29.77,SE,128,3.0,11.0,76,0.00,,,0.00,,2013-03-08 11:11:00,
2013-03-08 05:21:00,55.0,48.0,29.78,ESE,116,7.0,12.0,76,0.00,,,0.00,,2013-03-08 11:21:00,
2013-03-08 05:32:00,55.0,48.0,29.78,SE,138,4.0,14.0,77,0.00,,,0.00,,2013-03-08 11:32:00,
2013-03-08 05:42:00,55.0,48.0,29.78,SE,138,4.0,14.0,77,0.00,,,0.00,,2013-03-08 11:42:00,
2013-03-08 05:52:00,55.0,48.0,29.78,SE,136,4.0,13.0,77,0.00,,,0.00,,2013-03-08 11:52:00,
2013-03-08 06:01:00,55.0,48.0,29.78,SE,136,3.0,14.0,78,0.00,,,0.00,,2013-03-08 12:01:00,
2013-03-08 06:11:00,55.0,48.0,29.78,SE,136,3.0,14.0,78,0.00,,,0.00,,2013-03-08 12:11:00,
2013-03-08 06:22:00,55.0,49.0,29.78,SE,130,4.0,11.0,79,0.00,,,0.00,,2013-03-08 12:22:00,
2013-03-08 06:32:00,55.0,49.0,29.78,ESE,117,5.0,10.0,79,0.00,,,0.00,,2013-03-08 12:32:00,
2013-03-08 06:43:00,55.0,49.0,29.78,ESE,117,5.0,10.0,79,0.00,,,0.00,,2013-03-08 12:43:00,
2013-03-08 06:53:00,55.0,49.0,29.78,South,174,7.0,14.0,79,0.00,,,0.00,,2013-03-08 12:53:00,
2013-03-08 07:01:00,55.0,49.0,29.78,ESE,109,5.0,10.0,79,0.00,,,0.00,,2013-03-08 13:01:00,
2013-03-08 07:11:00,55.0,49.0,29.78,ESE,109,5.0,10.0,79,0.00,,,0.00,,2013-03-08 13:11:00,
2013-03-08 07:21:00,55.0,49.0,29.79,SSE,150,4.0,10.0,79,0.00,,,0.00,,2013-03-08 13:21:00,
2013-03-08 07:32:00,55.0,49.0,29.80,SE,134,5.0,11.0,79,0.00,,,0.00,,2013-03-08 13:32:00,
2013-03-08 07:42:00,55.0,49.0,29.80,SE,134,5.0,11.0,79,0.00,,,0.00,,2013-03-08 13:42:00,
2013-03-08 07:52:00,55.0,49.0,29.80,SE,134,5.0,11.0,79,0.00,,,0.00,,2013-03-08 13:52:00,
2013-03-08 08:02:00,56.0,50.0,29.80,ESE,119,3.0,9.0,79,0.00,,,0.00,,2013-03-08 14:02:00,
2013-03-08 08:11:00,56.0,50.0,29.80,ESE,119,3.0,9.0,79,0.00,,,0.00,,2013-03-08 14:11:00,
2013-03-08 08:22:00,56.0,50.0,29.81,SSE,148,6.0,10.0,79,0.00,,,0.00,,2013-03-08 14:22:00,
2013-03-08 08:32:00,56.0,50.0,29.82,South,171,4.0,10.0,79,0.00,,,0.00,,2013-03-08 14:32:00,
2013-03-08 08:42:00,56.0,50.0,29.82,South,171,4.0,10.0,79,0.00,,,0.00,,2013-03-08 14:42:00,
2013-03-08 08:52:00,56.0,50.0,29.83,ESE,116,2.0,10.0,79,0.00,,,0.00,,2013-03-08 14:52:00,
2013-03-08 09:02:00,56.0,50.0,29.84,SE,130,5.0,10.0,80,0.00,,,0.00,,2013-03-08 15:02:00,
2013-03-08 09:11:00,56.0,50.0,29.84,SE,130,5.0,10.0,80,0.00,,,0.00,,2013-03-08 15:11:00,
2013-03-08 09:22:00,57.0,51.0,29.84,SE,124,7.0,13.0,79,0.00,,,0.00,,2013-03-08 15:22:00,
2013-03-08 09:32:00,58.0,51.0,29.84,SE,130,4.0,10.0,78,0.00,,,0.00,,2013-03-08 15:32:00,
2013-03-08 09:42:00,58.0,51.0,29.84,SE,130,4.0,10.0,78,0.00,,,0.00,,2013-03-08 15:42:00,
2013-03-08 09:53:00,58.0,51.0,29.84,ESE,113,5.0,10.0,78,0.00,,,0.00,,2013-03-08 15:53:00,
2013-03-08 10:01:00,58.0,52.0,29.84,SE,130,5.0,12.0,79,0.00,,,0.00,,2013-03-08 16:01:00,
2013-03-08 10:11:00,58.0,52.0,29.84,SE,130,5.0,12.0,79,0.00,,,0.00,,2013-03-08 16:11:00,
2013-03-08 10:22:00,58.0,52.0,29.84,SE,130,5.0,12.0,79,0.00,,,0.00,,2013-03-08 16:22:00,
2013-03-08 10:32:00,58.0,51.0,29.83,SE,125,6.0,11.0,78,0.00,,,0.00,,2013-03-08 16:32:00,
2013-03-08 10:42:00,58.0,51.0,29.83,SE,125,6.0,11.0,78,0.00,,,0.00,,2013-03-08 16:42:00,
2013-03-08 10:52:00,59.0,52.0,29.82,SE,136,8.0,15.0,77,0.00,,,0.00,,2013-03-08 16:52:00,
2013-03-08 11:02:00,60.0,52.0,29.82,SE,130,6.0,15.0,76,0.00,,,0.00,,2013-03-08 17:02:00,
2013-03-08 11:11:00,60.0,52.0,29.82,SE,130,6.0,15.0,76,0.00,,,0.00,,2013-03-08 17:11:00,
2013-03-08 11:21:00,60.0,52.0,29.82,SSE,168,8.0,12.0,75,0.00,,,0.00,,2013-03-08 17:21:00,
2013-03-08 11:32:00,60.0,52.0,29.82,ESE,115,6.0,13.0,76,0.00,,,0.00,,2013-03-08 17:32:00,
2013-03-08 11:42:00,60.0,52.0,29.82,ESE,115,6.0,13.0,76,0.00,,,0.00,,2013-03-08 17:42:00,
2013-03-08 11:52:00,60.0,53.0,29.81,East,100,6.0,13.0,77,0.00,,,0.00,,2013-03-08 17:52:00,
2013-03-08 12:02:00,60.0,53.0,29.80,SE,135,6.0,14.0,77,0.00,,,0.00,,2013-03-08 18:02:00,
2013-03-08 12:11:00,60.0,53.0,29.80,SE,135,6.0,14.0,77,0.00,,,0.00,,2013-03-08 18:11:00,
2013-03-08 12:21:00,60.0,53.0,29.80,East,92,10.0,15.0,77,0.00,,,0.00,,2013-03-08 18:21:00,
2013-03-08 12:32:00,60.0,53.0,29.79,SE,141,7.0,14.0,77,0.00,,,0.00,,2013-03-08 18:32:00,
2013-03-08 12:42:00,60.0,53.0,29.79,SE,141,7.0,14.0,77,0.00,,,0.00,,2013-03-08 18:42:00,
2013-03-08 12:52:00,61.0,54.0,29.79,ESE,122,6.0,13.0,77,0.00,,,0.00,,2013-03-08 18:52:00,
2013-03-08 13:01:00,60.0,54.0,29.78,SE,142,4.0,15.0,82,0.00,,,0.00,,2013-03-08 19:01:00,
2013-03-08 13:11:00,60.0,54.0,29.78,SE,142,4.0,15.0,82,0.00,,,0.00,,2013-03-08 19:11:00,
2013-03-08 13:22:00,59.0,54.0,29.78,SE,141,5.0,11.0,84,0.00,,,0.00,,2013-03-08 19:22:00,
2013-03-08 13:32:00,59.0,55.0,29.76,ESE,103,5.0,11.0,86,0.00,,,0.00,,2013-03-08 19:32:00,
2013-03-08 13:42:00,59.0,55.0,29.76,ESE,103,5.0,11.0,86,0.00,,,0.00,,2013-03-08 19:42:00,
2013-03-08 13:52:00,59.0,55.0,29.76,ESE,103,5.0,11.0,86,0.00,,,0.00,,2013-03-08 19:52:00,
2013-03-08 14:01:00,60.0,55.0,29.75,SE,139,7.0,12.0,84,0.00,,,0.00,,2013-03-08 20:01:00,
2013-03-08 14:11:00,60.0,55.0,29.75,SE,139,7.0,12.0,84,0.00,,,0.00,,2013-03-08 20:11:00,
2013-03-08 14:21:00,59.0,54.0,29.74,East,99,6.0,13.0,85,0.00,,,0.00,,2013-03-08 20:21:00,
2013-03-08 14:32:00,59.0,55.0,29.74,SE,135,7.0,12.0,86,0.00,,,0.00,,2013-03-08 20:32:00,
2013-03-08 14:42:00,59.0,55.0,29.74,SE,135,7.0,12.0,86,0.00,,,0.00,,2013-03-08 20:42:00,
2013-03-08 14:52:00,59.0,55.0,29.73,SSE,155,4.0,12.0,86,0.00,,,0.00,,2013-03-08 20:52:00,
2013-03-08 15:02:00,59.0,55.0,29.73,ESE,112,5.0,11.0,86,0.00,,,0.00,,2013-03-08 21:02:00,
2013-03-08 15:11:00,59.0,55.0,29.73,ESE,112,5.0,11.0,86,0.00,,,0.00,,2013-03-08 21:11:00,
2013-03-08 15:21:00,59.0,55.0,29.73,ESE,107,3.0,10.0,87,0.00,,,0.00,,2013-03-08 21:21:00,
2013-03-08 15:32:00,59.0,55.0,29.73,SE,138,5.0,10.0,87,0.00,,,0.00,,2013-03-08 21:32:00,
2013-03-08 15:42:00,59.0,55.0,29.73,SE,138,5.0,10.0,87,0.00,,,0.00,,2013-03-08 21:42:00,
2013-03-08 15:51:00,60.0,56.0,29.73,ESE,117,3.0,10.0,87,0.00,,,0.00,,2013-03-08 21:51:00,
2013-03-08 16:01:00,60.0,56.0,29.72,ESE,112,4.0,11.0,88,0.00,,,0.00,,2013-03-08 22:01:00,
2013-03-08 16:11:00,60.0,56.0,29.72,ESE,112,4.0,11.0,88,0.00,,,0.00,,2013-03-08 22:11:00,
2013-03-08 16:22:00,60.0,56.0,29.72,SE,124,4.0,9.0,88,0.00,,,0.00,,2013-03-08 22:22:00,
2013-03-08 16:32:00,60.0,56.0,29.72,SE,124,4.0,9.0,88,0.00,,,0.00,,2013-03-08 22:32:00,
2013-03-08 16:42:00,60.0,56.0,29.72,SE,124,4.0,9.0,88,0.00,,,0.00,,2013-03-08 22:42:00,
2013-03-08 16:52:00,60.0,57.0,29.70,East,93,5.0,13.0,89,0.00,,,0.00,,2013-03-08 22:52:00,
2013-03-08 17:01:00,60.0,56.0,29.70,ESE,102,8.0,13.0,88,0.00,,,0.00,,2013-03-08 23:01:00,
2013-03-08 17:12:00,60.0,56.0,29.70,ESE,102,8.0,13.0,88,0.00,,,0.00,,2013-03-08 23:12:00,
2013-03-08 17:21:00,60.0,56.0,29.70,ESE,103,6.0,12.0,88,0.00,,,0.00,,2013-03-08 23:21:00,
2013-03-08 17:32:00,61.0,57.0,29.70,ESE,119,7.0,14.0,86,0.00,,,0.00,,2013-03-08 23:32:00,
2013-03-08 17:42:00,61.0,57.0,29.70,ESE,119,7.0,14.0,86,0.00,,,0.00,,2013-03-08 23:42:00,
2013-03-08 17:52:00,61.0,56.0,29.70,East,88,9.0,18.0,85,0.00,,,0.00,,2013-03-08 23:52:00,
2013-03-08 18:02:00,61.0,56.0,29.69,SE,137,7.0,13.0,85,0.00,,,0.00,,2013-03-09 00:02:00,
2013-03-08 18:11:00,61.0,56.0,29.69,SE,137,7.0,13.0,85,0.00,,,0.00,,2013-03-09 00:11:00,
2013-03-08 18:22:00,61.0,56.0,29.69,ESE,103,6.0,16.0,84,0.00,,,0.00,,2013-03-09 00:22:00,
2013-03-08 18:32:00,61.0,56.0,29.69,ESE,103,6.0,16.0,84,0.00,,,0.00,,2013-03-09 00:32:00,
2013-03-08 18:42:00,61.0,56.0,29.69,ESE,103,6.0,16.0,84,0.00,,,0.00,,2013-03-09 00:42:00,
2013-03-08 18:52:00,61.0,56.0,29.70,East,101,7.0,11.0,83,0.00,,,0.00,,2013-03-09 00:52:00,
2013-03-08 19:01:00,61.0,56.0,29.70,ESE,123,6.0,10.0,83,0.00,,,0.00,,2013-03-09 01:01:00,
2013-03-08 19:12:00,61.0,56.0,29.70,ESE,123,6.0,10.0,83,0.00,,,0.00,,2013-03-09 01:12:00,
2013-03-08 19:22:00,61.0,56.0,29.69,East,100,5.0,14.0,83,0.00,,,0.00,,2013-03-09 01:22:00,
2013-03-08 19:32:00,61.0,56.0,29.69,East,97,5.0,12.0,83,0.00,,,0.00,,2013-03-09 01:32:00,
2013-03-08 19:42:00,61.0,56.0,29.69,East,97,5.0,12.0,83,0.00,,,0.00,,2013-03-09 01:42:00,
2013-03-08 19:51:00,61.0,56.0,29.69,SE,124,5.0,10.0,83,0.00,,,0.00,,2013-03-09 01:51:00,
2013-03-08 20:01:00,61.0,56.0,29.69,SE,124,5.0,10.0,83,0.00,,,0.00,,2013-03-09 02:01:00,
2013-03-08 20:11:00,61.0,56.0,29.69,SE,124,5.0,10.0,83,0.00,,,0.00,,2013-03-09 02:11:00,
2013-03-08 20:21:00,61.0,56.0,29.69,SE,126,6.0,10.0,83,0.00,,,0.00,,2013-03-09 02:21:00,
2013-03-08 20:31:00,61.0,56.0,29.70,SE,124,5.0,13.0,83,0.00,,,0.00,,2013-03-09 02:31:00,
2013-03-08 20:41:00,61.0,56.0,29.70,SE,124,5.0,13.0,83,0.00,,,0.00,,2013-03-09 02:41:00,
2013-03-08 20:51:00,61.0,56.0,29.70,ESE,123,6.0,10.0,84,0.00,,,0.00,,2013-03-09 02:51:00,
2013-03-08 21:01:00,60.0,55.0,29.69,ESE,118,3.0,8.0,85,0.00,,,0.00,,2013-03-09 03:01:00,
2013-03-08 21:11:00,60.0,55.0,29.69,ESE,118,3.0,8.0,85,0.00,,,0.00,,2013-03-09 03:11:00,
2013-03-08 21:21:00,60.0,56.0,29.69,ESE,120,4.0,8.0,86,0.00,,,0.00,,2013-03-09 03:21:00,
2013-03-08 21:31:00,60.0,56.0,29.69,ESE,119,2.0,10.0,86,0.00,,,0.00,,2013-03-09 03:31:00,
2013-03-08 21:41:00,60.0,56.0,29.69,ESE,119,2.0,10.0,86,0.00,,,0.00,,2013-03-09 03:41:00,
2013-03-08 21:52:00,59.0,55.0,29.69,SE,129,4.0,9.0,87,0.00,,,0.00,,2013-03-09 03:52:00,
2013-03-08 22:01:00,60.0,56.0,29.69,SE,142,4.0,10.0,87,0.00,,,0.00,,2013-03-09 04:01:00,
2013-03-08 22:11:00,60.0,56.0,29.69,SE,142,4.0,10.0,87,0.00,,,0.00,,2013-03-09 04:11:00,
2013-03-08 22:22:00,60.0,56.0,29.68,ESE,117,5.0,10.0,86,0.00,,,0.00,,2013-03-09 04:22:00,
2013-03-08 22:32:00,61.0,56.0,29.69,SE,130,5.0,13.0,84,0.00,,,0.00,,2013-03-09 04:32:00,
2013-03-08 22:42:00,61.0,56.0,29.69,SE,130,5.0,13.0,84,0.00,,,0.00,,2013-03-09 04:42:00,
2013-03-08 22:51:00,61.0,56.0,29.68,SE,126,8.0,15.0,84,0.00,,,0.00,,2013-03-09 04:51:00,
2013-03-08 23:02:00,61.0,56.0,29.68,East,95,8.0,14.0,84,0.00,,,0.00,,2013-03-09 05:02:00,
2013-03-08 23:12:00,61.0,56.0,29.68,East,95,8.0,14.0,84,0.00,,,0.00,,2013-03-09 05:12:00,
2013-03-08 23:22:00,61.0,56.0,29.68,SSE,150,3.0,12.0,84,0.00,,,0.00,,2013-03-09 05:22:00,
2013-03-08 23:32:00,61.0,56.0,29.67,SE,134,5.0,12.0,83,0.00,,,0.00,,2013-03-09 05:32:00,
2013-03-08 23:42:00,61.0,56.0,29.67,SE,134,5.0,12.0,83,0.00,,,0.00,,2013-03-09 05:42:00,
2013-03-08 23:52:00,61.0,55.0,29.67,ESE,122,8.0,16.0,82,0.00,,,0.00,,2013-03-09 05:52:00,